Карточка аэропорта UNWW

Внимание!
Информация на этой странице в стадии наполнения.
Если вы не увидели какой-то информации, или заметили неточность - пожалуйста сообщите нам!
Спасибо!
Команда RU-STAFF
Название аэропортаСпиченково
Название аэропорта (англ.)Spichenkovo
Превышение1023 ft. (311.8 m.)
Координаты53°48.714', 86°52.704'
Высота перехода800m
Эшелон переходаFL050
Коды ответчика5270-5277
Зона ОрВДНовосибирск РПИ (UNNT)
Данные METARUNWW 171200Z 15002MPS 9999 SCT040CB 13/07 Q1012 R19/220257 NOSIG RMK QFE732
Проноз погоды (TAF)UNWW 171100Z 1712/1812 19003G08MPS 8000 -SHRA BKN020CB TEMPO 1712/1720 24006G15MPS SCT016CB PROB40 TEMPO 1712/1720 -TSRA TEMPO 1720/1803 SCT005 BKN011CB BECMG 1722/1801 24003G08MPS TEMPO 1804/1812 26008G15MPS -TSRA SCT011CB
NOTAMshow/hide NOTAM
AWOS   TABLE

Информация о ВПП

ВПП Длина ВПП (м.) Покрытие Курс ВПП Частота ILS
012679Цементобетон14 
192679Цементобетон194111.1

Диспетчерские позиции

Позывной Наименование органа УВД Частота
UNWW_APPНовокузнецк-Подход118.6
UNWW_TWRНовокузнецк-Старт121.2



Спутниковое изображение